Terminal Aerodrome Forecast
Issued by NWS

Home | Current Version | Previous Version | Text Only | Print | Product List | Glossary On
Versions: 1 2 3 4 5 6 7 8 9 10 11 12 13 14 15 16 17 18 19 20 21 22 23 24 25
000
FTUS45 KBOU 231504 AAA
TAFAPA
TAF AMD
KAPA 231504Z 2315/2412 04005KT P6SM BKN008 OVC020
     FM231700 04012KT P6SM BKN012 OVC060
      TEMPO 2317/2319 4SM -FZDZ BR BKN008
     FM231900 01014KT P6SM BKN020 OVC060
     FM232200 35018G26KT P6SM BKN025 OVC040
      TEMPO 2322/2402 3SM -SHSN OVC012
     FM240200 01015G23KT 2SM -SN BR SCT008 BKN012 OVC020
      TEMPO 2402/2406 3/4SM -SN BR BKN004
     FM241000 02009KT P6SM SCT006 OVC010=

USA.gov is the U.S. government's official web portal to all federal, state and local government web resources and services.